DW8790 Maspalomas ES current weather conditions

sailwx.info

Wind from 269 at 1 knots gusting 5

Air temperature 17.8° C
Dewpoint 11.6° C

Last reported at 2017-Feb-26 18:55 UTC.
Time now 2017-Feb-26 19:07 UTC

Location: N 27°46' W 015°34'.
View on Google Maps.

See reports from other nearby stations

  
Tides and Currents Weather Stations Pressure Air Temp Water Temp Dewpoint Dewpoint Depression Visibility Wind Speed Wind Dir Waves Ship Positions
date/time (UTC)wind fromknots sea level pressurealtimeterstation pressurevisibilityair tempwater tempwave heightnotes
2017-Feb-26 18:55 269 1 gusting 5 17.8
2017-Feb-26 18:50 275 2 gusting 6 17.8
2017-Feb-26 18:45 291 4 gusting 6 17.8
2017-Feb-26 18:40 223 4 gusting 6 18.3
2017-Feb-26 18:35 247 4 gusting 6 18.3
2017-Feb-26 18:30 291 3 gusting 6 18.3
2017-Feb-26 18:25 219 2 gusting 6 18.3
2017-Feb-26 18:10 271 4 gusting 6 18.9
2017-Feb-26 18:05 229 2 gusting 7 18.9
2017-Feb-26 18:00 277 5 gusting 7 18.9
2017-Feb-26 17:55 290 5 gusting 8 18.9
2017-Feb-26 17:50 184 1 gusting 6 18.9
2017-Feb-26 17:45 227 5 gusting 10 18.9
2017-Feb-26 17:40 200 4 gusting 7 18.9
2017-Feb-26 17:35 286 5 gusting 8 18.9
2017-Feb-26 17:30 282 5 gusting 8 18.9
2017-Feb-26 17:25 226 4 gusting 7 18.9
2017-Feb-26 17:20 261 4 gusting 8 18.9
2017-Feb-26 17:15 246 4 gusting 6 18.9
2017-Feb-26 17:10 257 4 gusting 8 18.9
2017-Feb-26 17:05 226 4 gusting 7 19.4
2017-Feb-26 17:00 199 2 gusting 6 19.4
2017-Feb-26 16:55 239 5 gusting 7 18.9
2017-Feb-26 16:50 217 5 gusting 10 18.9
2017-Feb-26 16:45 229 4 gusting 8 18.9
2017-Feb-26 16:40 217 6 gusting 8 18.9
2017-Feb-26 16:35 230 6 gusting 10 19.4
2017-Feb-26 16:30 236 6 gusting 10 19.4
2017-Feb-26 16:25 235 6 gusting 10 19.4
2017-Feb-26 16:20 230 5 gusting 10 19.4
2017-Feb-26 16:15 266 6 gusting 11 18.9
2017-Feb-26 16:10 252 6 gusting 10 18.9
2017-Feb-26 16:05 315 6 gusting 12 19.4
2017-Feb-26 16:00 233 6 gusting 12 18.9
2017-Feb-26 15:55 213 7 gusting 12 18.9
2017-Feb-26 15:50 299 6 gusting 10 19.4
2017-Feb-26 15:45 236 7 gusting 13 18.9
2017-Feb-26 15:40 256 6 gusting 10 18.9
2017-Feb-26 15:35 248 5 gusting 13 18.9
2017-Feb-26 15:30 251 6 gusting 10 19.4
2017-Feb-26 15:20 283 4 gusting 10 19.4
2017-Feb-26 15:10 268 6 gusting 12 19.4
2017-Feb-26 15:05 252 6 gusting 10 19.4
2017-Feb-26 15:00 285 5 gusting 10 19.4
2017-Feb-26 14:55 239 5 gusting 8 19.4
2017-Feb-26 14:50 272 6 gusting 10 19.4
2017-Feb-26 14:45 283 6 gusting 12 19.4
2017-Feb-26 14:40 288 5 gusting 10 19.4
2017-Feb-26 14:35 259 5 gusting 11 19.4
2017-Feb-26 14:25 266 6 gusting 11 19.4
2017-Feb-26 14:20 272 6 gusting 11 19.4
2017-Feb-26 14:15 304 6 gusting 11 20.0
2017-Feb-26 14:10 273 6 gusting 10 19.4
2017-Feb-26 14:05 279 4 gusting 10 19.4
2017-Feb-26 14:00 308 6 gusting 10 20.0
2017-Feb-26 13:55 259 2 gusting 10 20.0
2017-Feb-26 13:50 260 6 gusting 10 20.0
2017-Feb-26 13:45 256 5 gusting 10 20.0
2017-Feb-26 13:40 202 6 gusting 10 20.0
2017-Feb-26 13:35 257 4 gusting 10 20.0
2017-Feb-26 13:30 233 5 gusting 10 19.4
2017-Feb-26 13:25 195 5 gusting 7 19.4
2017-Feb-26 13:20 235 4 gusting 8 19.4
2017-Feb-26 13:15 247 4 gusting 8 19.4
2017-Feb-26 13:10 219 5 gusting 7 19.4
2017-Feb-26 13:05 237 4 gusting 7 19.4
2017-Feb-26 13:00 213 4 gusting 6 19.4
2017-Feb-26 12:55 248 5 gusting 8 19.4
2017-Feb-26 12:45 215 0 gusting 10 19.4
2017-Feb-26 12:40 226 2 gusting 6 19.4
2017-Feb-26 12:35 252 6 gusting 10 19.4
2017-Feb-26 12:30 229 4 gusting 7 19.4
2017-Feb-26 12:25 252 5 gusting 10 19.4
2017-Feb-26 12:20 260 5 gusting 11 18.9
2017-Feb-26 12:15 234 7 gusting 13 18.9
2017-Feb-26 12:10 286 9 gusting 13 19.4
2017-Feb-26 12:05 190 5 gusting 10 19.4
2017-Feb-26 12:00 201 2 gusting 7 20.0
2017-Feb-26 11:55 227 5 gusting 10 19.4
2017-Feb-26 11:50 272 4 gusting 8 19.4
2017-Feb-26 11:45 280 4 gusting 10 18.9
2017-Feb-26 11:40 280 6 gusting 10 19.4
2017-Feb-26 11:35 287 5 gusting 8 18.9
2017-Feb-26 11:30 254 6 gusting 11 19.4
2017-Feb-26 11:25 231 5 gusting 8 20.0
2017-Feb-26 11:20 300 5 gusting 13 20.0
2017-Feb-26 11:15 286 2 gusting 5 20.0
2017-Feb-26 11:10 024 3 gusting 10 20.6
2017-Feb-26 11:05 056 2 gusting 8 20.0
2017-Feb-26 11:00 046 4 gusting 11 20.0
2017-Feb-26 10:55 084 3 gusting 11 20.0
2017-Feb-26 10:50 033 5 gusting 10 19.4
2017-Feb-26 10:45 068 4 gusting 10 20.0
2017-Feb-26 10:40 065 5 gusting 10 20.0
2017-Feb-26 10:35 055 4 gusting 13 19.4
2017-Feb-26 10:30 044 4 gusting 13 19.4
2017-Feb-26 10:25 073 6 gusting 13 19.4
2017-Feb-26 10:20 088 6 gusting 11 19.4
2017-Feb-26 10:15 048 4 gusting 13 19.4
2017-Feb-26 10:10 084 2 gusting 6 19.4
2017-Feb-26 10:05 066 4 gusting 7 19.4
2017-Feb-26 10:00 078 6 gusting 10 19.4
2017-Feb-26 09:55 081 1 gusting 10 19.4
2017-Feb-26 09:50 074 2 gusting 6 18.9
2017-Feb-26 09:45 057 4 gusting 7 18.9
2017-Feb-26 09:40 046 2 gusting 6 18.9
2017-Feb-26 09:35 088 1 gusting 6 18.9
2017-Feb-26 09:30 067 3 gusting 6 18.9
2017-Feb-26 09:25 075 2 gusting 6 18.9
2017-Feb-26 09:20 081 2 gusting 8 18.3
2017-Feb-26 09:15 079 3 gusting 8 18.3
2017-Feb-26 09:10 076 2 gusting 7 18.3
2017-Feb-26 09:05 078 4 gusting 8 18.3
2017-Feb-26 09:00 075 3 gusting 10 17.8
2017-Feb-26 08:55 059 2 gusting 6 17.8
2017-Feb-26 08:50 067 17.2
2017-Feb-26 08:45 355 17.2
2017-Feb-26 08:40 306 0 gusting 2 16.7
2017-Feb-26 08:35 308 0 gusting 4 16.7
2017-Feb-26 08:30 343 0 gusting 5 16.1
2017-Feb-26 08:25 034 2 gusting 4 16.1
2017-Feb-26 08:20 055 16.1
2017-Feb-26 08:15 057 15.6
2017-Feb-26 08:10 324 0 gusting 2 15.6
2017-Feb-26 08:05 342 15.0
2017-Feb-26 08:00 345 15.0
2017-Feb-26 07:55 048 1 gusting 5 15.0
2017-Feb-26 07:50 047 15.0
2017-Feb-26 07:45 047 15.0
2017-Feb-26 07:40 047 15.6
2017-Feb-26 07:35 047 15.0
2017-Feb-26 07:30 047 15.0
2017-Feb-26 07:25 047 15.0
2017-Feb-26 07:20 357 1 gusting 2 15.0
2017-Feb-26 07:15 15.0
2017-Feb-26 07:10 053 15.0
2017-Feb-26 07:05 016 15.0
2017-Feb-26 07:00 051 15.0
2017-Feb-26 06:55 051 15.0
2017-Feb-26 06:50 051 15.0
2017-Feb-26 06:45 051 15.0
2017-Feb-26 06:40 051 15.0
2017-Feb-26 06:35 051 15.0
2017-Feb-26 06:30 063 15.6
2017-Feb-26 06:25 075 15.6
2017-Feb-26 06:20 075 15.6
2017-Feb-26 06:15 075 15.6
2017-Feb-26 06:10 075 0 gusting 5 15.6
2017-Feb-26 06:05 083 1 gusting 4 15.6
2017-Feb-26 06:00 085 0 gusting 4 15.6
2017-Feb-26 05:55 075 2 gusting 5 15.6
2017-Feb-26 05:50 084 1 gusting 4 15.6
2017-Feb-26 05:45 144 15.6
2017-Feb-26 05:40 144 15.6
2017-Feb-26 05:35 067 15.6
2017-Feb-26 05:30 067 15.6
2017-Feb-26 05:25 067 15.6
2017-Feb-26 05:20 067 15.6
2017-Feb-26 05:15 067 15.6
2017-Feb-26 05:10 067 15.6
2017-Feb-26 05:05 035 2 gusting 5 15.6
2017-Feb-26 05:00 023 15.6
2017-Feb-26 04:55 023 15.6
2017-Feb-26 04:50 005 0 gusting 2 16.1
2017-Feb-26 04:45 022 16.1
2017-Feb-26 04:40 022 16.1
2017-Feb-26 04:35 329 16.1
2017-Feb-26 04:30 023 16.1
2017-Feb-26 04:25 026 16.1
2017-Feb-26 04:20 026 16.1
2017-Feb-26 04:15 026 16.1
2017-Feb-26 04:10 026 16.1
2017-Feb-26 04:05 026 16.1
2017-Feb-26 04:00 026 16.1
2017-Feb-26 03:55 026 16.1
2017-Feb-26 03:50 026 16.1
2017-Feb-26 03:45 026 16.1
2017-Feb-26 03:40 026 16.1
2017-Feb-26 03:35 026 16.1
2017-Feb-26 03:30 026 16.1
2017-Feb-26 03:20 026 16.1
2017-Feb-26 03:15 026 16.1
2017-Feb-26 03:10 026 16.1
2017-Feb-26 03:05 026 16.1
2017-Feb-26 03:00 023 16.1
2017-Feb-26 02:55 306 16.1
2017-Feb-26 02:50 331 16.1
2017-Feb-26 02:45 349 16.1
2017-Feb-26 02:40 038 16.1
2017-Feb-26 02:35 038 16.1
2017-Feb-26 02:30 038 16.1
2017-Feb-26 02:25 038 16.1
2017-Feb-26 02:20 038 0 gusting 2 16.1
2017-Feb-26 02:15 086 0 gusting 1 16.1
2017-Feb-26 02:10 040 16.1
2017-Feb-26 02:05 040 16.1
2017-Feb-26 02:00 040 16.1
2017-Feb-26 01:55 016 15.6
2017-Feb-26 01:50 355 15.6
2017-Feb-26 01:45 317 0 gusting 4 15.6
2017-Feb-26 01:40 352 15.6
2017-Feb-26 01:35 003 0 gusting 2 15.6
2017-Feb-26 01:30 345 15.6
2017-Feb-26 01:25 302 15.6
2017-Feb-26 01:20 316 1 gusting 2 15.6
2017-Feb-26 01:15 260 1 gusting 2 15.6
2017-Feb-26 01:10 260 15.6
2017-Feb-26 01:05 260 1 gusting 2 16.1
2017-Feb-26 01:00 036 16.1
2017-Feb-26 00:55 057 16.1
2017-Feb-26 00:45 057 16.1
2017-Feb-26 00:40 057 16.1
2017-Feb-26 00:35 055 0 gusting 2 16.1
2017-Feb-26 00:30 066 1 gusting 4 16.1
2017-Feb-26 00:25 034 0 gusting 2 16.1
2017-Feb-26 00:20 071 16.1
2017-Feb-26 00:15 071 16.1
2017-Feb-26 00:10 071 16.7
2017-Feb-26 00:05 071 16.7
2017-Feb-26 00:00 071 16.7
2017-Feb-25 23:55 071 16.7
2017-Feb-25 23:50 071 16.7
2017-Feb-25 23:45 071 16.7
2017-Feb-25 23:40 071 16.7
2017-Feb-25 23:35 071 16.7
2017-Feb-25 23:30 071 16.7
2017-Feb-25 23:25 071 16.7
2017-Feb-25 23:20 071 16.7
2017-Feb-25 23:15 071 17.2
2017-Feb-25 23:10 071 17.2
2017-Feb-25 23:05 071 17.2
2017-Feb-25 23:00 071 17.2
2017-Feb-25 22:55 071 0 gusting 2 17.2
2017-Feb-25 22:50 074 0 gusting 2 17.2
2017-Feb-25 22:45 065 0 gusting 4 17.2
2017-Feb-25 22:40 077 0 gusting 2 17.2
2017-Feb-25 22:35 096 17.2
2017-Feb-25 22:30 088 0 gusting 4 17.2
2017-Feb-25 22:25 069 0 gusting 2 17.2
2017-Feb-25 22:20 077 0 gusting 6 17.2
2017-Feb-25 22:15 020 17.2
2017-Feb-25 22:10 020 17.2
2017-Feb-25 22:05 020 17.2
2017-Feb-25 22:00 020 17.2
2017-Feb-25 21:55 347 17.2
2017-Feb-25 21:50 328 17.2
2017-Feb-25 21:45 328 17.2
2017-Feb-25 21:40 327 0 gusting 2 17.2
2017-Feb-25 21:35 305 0 gusting 2 17.2
2017-Feb-25 21:30 306 1 gusting 2 17.2
2017-Feb-25 21:25 297 0 gusting 2 17.2
2017-Feb-25 21:20 267 0 gusting 2 17.2
2017-Feb-25 21:15 266 1 gusting 2 17.2
2017-Feb-25 21:10 266 1 gusting 4 17.2
2017-Feb-25 21:05 228 2 gusting 5 17.8
2017-Feb-25 21:00 257 2 gusting 5 17.8
2017-Feb-25 20:55 274 3 gusting 6 17.8
2017-Feb-25 20:50 259 1 gusting 4 17.8
2017-Feb-25 20:45 255 2 gusting 5 17.8
2017-Feb-25 20:40 260 1 gusting 5 17.8
2017-Feb-25 20:35 263 0 gusting 2 17.8
2017-Feb-25 20:30 263 1 gusting 6 17.8
2017-Feb-25 20:25 227 4 gusting 6 17.8
2017-Feb-25 20:20 251 1 gusting 5 17.8
2017-Feb-25 20:15 234 1 gusting 5 17.8
2017-Feb-25 20:10 211 2 gusting 5 17.8
2017-Feb-25 20:05 234 1 gusting 4 17.8
2017-Feb-25 20:00 166 1 gusting 5 17.8
2017-Feb-25 19:55 172 2 gusting 4 17.8
2017-Feb-25 19:50 189 1 gusting 5 17.8
2017-Feb-25 19:45 160 2 gusting 4 17.8
2017-Feb-25 19:40 195 2 gusting 6 17.8
2017-Feb-25 19:35 210 2 gusting 4 18.3
2017-Feb-25 19:30 227 2 gusting 6 18.3
2017-Feb-25 19:25 261 2 gusting 7 18.3
2017-Feb-25 19:20 243 3 gusting 7 18.3
2017-Feb-25 19:15 291 5 gusting 6 18.3
2017-Feb-25 19:05 241 4 gusting 6 18.3
2017-Feb-25 19:00 225 5 gusting 7 18.3
2017-Feb-25 18:55 275 6 gusting 10 18.9
2017-Feb-25 18:50 282 4 gusting 8 18.9
2017-Feb-25 18:45 267 4 gusting 6 18.9
2017-Feb-25 18:40 269 5 gusting 8 18.9
2017-Feb-25 18:35 313 5 gusting 8 18.9
2017-Feb-25 18:30 261 5 gusting 8 19.4
2017-Feb-25 18:25 248 4 gusting 6 18.9
2017-Feb-25 18:20 268 6 gusting 8 18.9
2017-Feb-25 18:15 250 5 gusting 8 18.9
2017-Feb-25 18:10 247 5 gusting 6 18.9
2017-Feb-25 18:05 318 6 gusting 10 18.9
2017-Feb-25 18:00 244 5 gusting 8 18.9
2017-Feb-25 17:55 303 4 gusting 10 18.9
2017-Feb-25 17:50 317 6 gusting 8 18.9
2017-Feb-25 17:45 279 6 gusting 8 18.9
2017-Feb-25 17:40 275 6 gusting 8 18.9
2017-Feb-25 17:35 286 5 gusting 10 18.9
2017-Feb-25 17:30 229 4 gusting 8 18.9
2017-Feb-25 17:25 324 5 gusting 10 19.4
2017-Feb-25 17:20 272 4 gusting 7 18.9
2017-Feb-25 17:15 282 6 gusting 10 18.9
2017-Feb-25 17:10 254 5 gusting 10 19.4
2017-Feb-25 17:05 266 4 gusting 10 19.4
2017-Feb-25 17:00 273 5 gusting 8 19.4
2017-Feb-25 16:55 285 6 gusting 10 18.9
2017-Feb-25 16:50 247 6 gusting 10 19.4
2017-Feb-25 16:45 261 6 gusting 8 20.0
2017-Feb-25 16:40 277 6 gusting 10 19.4
2017-Feb-25 16:35 252 6 gusting 11 19.4
2017-Feb-25 16:30 252 7 gusting 11 19.4
2017-Feb-25 16:25 252 6 gusting 10 20.0
2017-Feb-25 16:20 264 6 gusting 10 20.0
2017-Feb-25 16:15 247 6 gusting 10 20.0
2017-Feb-25 16:10 259 5 gusting 11 20.0
2017-Feb-25 16:05 239 6 gusting 10 20.0
2017-Feb-25 16:00 218 5 gusting 10 20.0
2017-Feb-25 15:55 243 6 gusting 11 20.0
2017-Feb-25 15:50 244 6 gusting 10 20.6
2017-Feb-25 15:45 243 6 gusting 10 20.6
2017-Feb-25 15:40 274 6 gusting 10 20.0
2017-Feb-25 15:30 252 5 gusting 10 20.0
2017-Feb-25 15:20 268 4 gusting 10 20.0
2017-Feb-25 15:15 236 6 gusting 10 20.0
2017-Feb-25 15:10 235 4 gusting 10 20.0
2017-Feb-25 15:05 203 6 gusting 10 20.0
2017-Feb-25 15:00 219 6 gusting 11 20.0
2017-Feb-25 14:55 266 6 gusting 12 20.0
2017-Feb-25 14:50 244 5 gusting 12 20.0
2017-Feb-25 14:45 241 7 gusting 11 20.0
2017-Feb-25 14:40 283 7 gusting 12 20.0
2017-Feb-25 14:35 236 4 gusting 13 20.0
2017-Feb-25 14:30 234 6 gusting 13 20.6
2017-Feb-25 14:25 271 6 gusting 12 20.6
2017-Feb-25 14:20 236 6 gusting 13 20.0
2017-Feb-25 14:15 297 6 gusting 13 20.0
2017-Feb-25 14:10 243 7 gusting 13 20.6
2017-Feb-25 14:05 235 9 gusting 15 20.6
2017-Feb-25 14:00 239 8 gusting 13 20.6
2017-Feb-25 13:55 224 7 gusting 13 20.6
2017-Feb-25 13:50 247 7 gusting 13 20.6
2017-Feb-25 13:45 265 7 gusting 13 20.6
2017-Feb-25 13:40 251 8 gusting 13 20.6
2017-Feb-25 13:35 222 6 gusting 10 20.6
2017-Feb-25 13:30 234 9 gusting 12 20.6
2017-Feb-25 13:25 215 6 gusting 10 20.6
2017-Feb-25 13:20 226 6 gusting 11 20.6
2017-Feb-25 13:15 226 7 gusting 13 20.6
2017-Feb-25 13:10 215 6 gusting 13 20.6
2017-Feb-25 13:05 261 7 gusting 12 20.6
2017-Feb-25 13:00 272 6 gusting 13 20.6
2017-Feb-25 12:55 271 6 gusting 10 20.6
2017-Feb-25 12:45 291 6 gusting 11 20.6
2017-Feb-25 12:40 277 6 gusting 12 20.6
2017-Feb-25 12:35 307 6 gusting 10 20.0
2017-Feb-25 12:30 270 7 gusting 12 20.0
2017-Feb-25 12:25 270 6 gusting 11 20.0
2017-Feb-25 12:20 249 6 gusting 11 20.0
2017-Feb-25 12:15 229 6 gusting 10 20.0
2017-Feb-25 12:10 198 6 gusting 12 20.0
2017-Feb-25 12:05 273 4 gusting 7 20.6
2017-Feb-25 12:00 277 4 gusting 7 20.0
2017-Feb-25 11:55 282 3 gusting 7 20.0
2017-Feb-25 11:50 278 2 gusting 7 20.0
2017-Feb-25 11:45 297 2 gusting 6 20.0
2017-Feb-25 11:40 256 6 gusting 10 20.0
2017-Feb-25 11:35 311 3 gusting 8 20.0
2017-Feb-25 11:30 294 4 gusting 8 20.0
2017-Feb-25 11:25 286 3 gusting 6 20.0
2017-Feb-25 11:20 246 1 gusting 5 20.6
2017-Feb-25 11:15 279 0 gusting 4 20.6
2017-Feb-25 11:10 297 2 gusting 6 20.0
2017-Feb-25 11:05 046 1 gusting 5 20.6
2017-Feb-25 11:00 122 0 gusting 4 20.6
2017-Feb-25 10:55 137 20.0
2017-Feb-25 10:50 123 1 gusting 7 20.0
2017-Feb-25 10:45 115 3 gusting 7 19.4
2017-Feb-25 10:40 127 1 gusting 2 18.9
2017-Feb-25 10:35 215 1 gusting 4 18.3
2017-Feb-25 10:30 249 2 gusting 4 18.3
2017-Feb-25 10:25 284 0 gusting 2 18.3
2017-Feb-25 10:20 267 0 gusting 2 18.3
2017-Feb-25 10:15 248 0 gusting 1 18.3
2017-Feb-25 10:05 031 0 gusting 2 18.3
2017-Feb-25 10:00 035 18.3
2017-Feb-25 09:55 035 18.3
2017-Feb-25 09:50 010 18.9
2017-Feb-25 09:45 044 18.3
2017-Feb-25 09:40 080 18.3
2017-Feb-25 09:35 033 0 gusting 2 18.3
2017-Feb-25 09:30 033 18.3
2017-Feb-25 09:25 039 18.3
2017-Feb-25 09:20 077 17.8
2017-Feb-25 09:15 315 17.2
2017-Feb-25 09:10 321 17.2
2017-Feb-25 09:05 314 0 gusting 2 16.7
2017-Feb-25 09:00 327 0 gusting 2 16.1
2017-Feb-25 08:55 332 16.1
2017-Feb-25 08:50 332 0 gusting 2 15.6
2017-Feb-25 08:45 300 15.6
2017-Feb-25 08:40 300 0 gusting 1 15.6
2017-Feb-25 08:35 327 15.6
2017-Feb-25 08:30 327 15.0
2017-Feb-25 08:25 044 15.0
2017-Feb-25 08:20 013 2 gusting 4 15.0
2017-Feb-25 08:15 051 0 gusting 2 15.0
2017-Feb-25 08:10 049 0 gusting 2 15.0
2017-Feb-25 08:05 024 15.0
2017-Feb-25 08:00 356 15.0
2017-Feb-25 07:55 007 15.0
2017-Feb-25 07:50 023 15.0
2017-Feb-25 07:45 008 0 gusting 2 15.0
2017-Feb-25 07:40 353 15.0
2017-Feb-25 07:35 314 0 gusting 2 15.0
2017-Feb-25 07:30 325 0 gusting 2 15.0
2017-Feb-25 07:25 273 15.0
2017-Feb-25 07:20 321 0 gusting 2 15.0
2017-Feb-25 07:15 346 0 gusting 1 14.4
2017-Feb-25 07:10 337 14.4
2017-Feb-25 07:05 337 14.4
2017-Feb-25 07:00 337 14.4
2017-Feb-25 06:55 337 14.4
2017-Feb-25 06:50 337 14.4
2017-Feb-25 06:45 337 15.0
2017-Feb-25 06:40 337 15.0
2017-Feb-25 06:35 337 15.0
2017-Feb-25 06:30 337 15.0
2017-Feb-25 06:25 337 15.0
2017-Feb-25 06:20 337 15.0
2017-Feb-25 06:15 337 15.0
2017-Feb-25 06:10 337 15.0
2017-Feb-25 06:05 337 15.0
2017-Feb-25 06:00 337 15.0
2017-Feb-25 05:55 337 15.0
2017-Feb-25 05:50 336 15.0
2017-Feb-25 05:45 336 15.0
2017-Feb-25 05:40 341 15.0
2017-Feb-25 05:35 017 0 gusting 2 15.0
2017-Feb-25 05:30 040 15.0
2017-Feb-25 05:25 040 15.0
2017-Feb-25 05:20 040 15.0
2017-Feb-25 05:15 040 15.0
2017-Feb-25 05:10 15.0
2017-Feb-25 05:05 007 0 gusting 2 15.0
2017-Feb-25 05:00 008 15.0
2017-Feb-25 04:55 352 15.0
2017-Feb-25 04:50 352 0 gusting 2 15.6
2017-Feb-25 04:45 345 15.6
2017-Feb-25 04:40 326 15.6
2017-Feb-25 04:35 090 0 gusting 2 15.6
2017-Feb-25 04:30 348 15.6
2017-Feb-25 04:25 338 15.6
2017-Feb-25 04:20 038 15.6
2017-Feb-25 04:10 055 1 gusting 2 15.6
2017-Feb-25 04:05 055 15.6
2017-Feb-25 04:00 055 0 gusting 2 15.6
2017-Feb-25 03:55 055 15.6
2017-Feb-25 03:50 055 15.6
2017-Feb-25 03:45 339 15.6
2017-Feb-25 03:40 035 1 gusting 2 15.6
2017-Feb-25 03:35 051 15.6
2017-Feb-25 03:20 069 15.6
2017-Feb-25 03:15 355 15.6
2017-Feb-25 03:10 005 15.6
2017-Feb-25 03:05 121 15.6
2017-Feb-25 03:00 121 15.6
2017-Feb-25 02:55 121 15.6
2017-Feb-25 02:45 121 15.6
2017-Feb-25 02:40 121 15.6
2017-Feb-25 02:35 121 15.6
2017-Feb-25 02:30 121 15.6
2017-Feb-25 02:25 121 15.6
2017-Feb-25 02:20 121 15.6
2017-Feb-25 02:15 121 15.6
2017-Feb-25 02:10 121 15.6
2017-Feb-25 02:05 121 15.6
2017-Feb-25 02:00 121 15.6
2017-Feb-25 01:55 121 15.6
2017-Feb-25 01:50 121 15.6
2017-Feb-25 01:45 121 15.6
2017-Feb-25 01:40 121 15.6
2017-Feb-25 01:35 121 15.6
2017-Feb-25 01:30 121 15.6
2017-Feb-25 01:25 121 15.6
2017-Feb-25 01:20 121 15.6
2017-Feb-25 01:15 121 15.6
2017-Feb-25 01:10 121 15.6
2017-Feb-25 01:05 121 15.6
2017-Feb-25 01:00 121 15.6
2017-Feb-25 00:55 121 15.6
2017-Feb-25 00:40 121 16.1
2017-Feb-25 00:35 121 16.1
2017-Feb-25 00:30 121 16.1
2017-Feb-25 00:25 121 16.1
2017-Feb-25 00:20 121 16.1
2017-Feb-25 00:15 121 16.1
2017-Feb-25 00:10 121 16.1
2017-Feb-25 00:05 121 16.1
2017-Feb-25 00:00 121 16.7
2017-Feb-24 23:55 121 16.7
2017-Feb-24 23:50 121 16.7
2017-Feb-24 23:45 121 16.7
2017-Feb-24 23:40 121 16.7
2017-Feb-24 23:35 121 16.7
2017-Feb-24 23:30 121 16.7
2017-Feb-24 23:25 121 16.7
2017-Feb-24 23:20 121 16.7
2017-Feb-24 23:15 121 16.7
2017-Feb-24 23:10 121 16.7
2017-Feb-24 23:05 121 16.7
2017-Feb-24 23:00 121 16.7
2017-Feb-24 22:55 121 16.7
2017-Feb-24 22:50 121 16.7
2017-Feb-24 22:45 121 16.7
2017-Feb-24 22:40 121 16.7
2017-Feb-24 22:35 121 16.7
2017-Feb-24 22:30 121 16.7
2017-Feb-24 22:25 121 16.7
2017-Feb-24 22:20 121 16.7
2017-Feb-24 22:15 121 17.2
2017-Feb-24 22:10 121 17.2
2017-Feb-24 22:05 060 17.2
2017-Feb-24 22:00 057 17.2
2017-Feb-24 21:55 057 17.2
2017-Feb-24 21:50 057 17.2
2017-Feb-24 21:45 057 17.2
2017-Feb-24 21:40 057 17.2
2017-Feb-24 21:35 090 17.2
2017-Feb-24 21:30 090 0 gusting 2 17.2
2017-Feb-24 21:25 070 0 gusting 2 17.2
2017-Feb-24 21:20 070 0 gusting 4 17.2
2017-Feb-24 21:15 064 0 gusting 2 17.2
2017-Feb-24 21:10 064 17.2
2017-Feb-24 21:05 064 0 gusting 2 17.2
2017-Feb-24 21:00 051 0 gusting 2 17.8
2017-Feb-24 20:55 065 1 gusting 4 17.8
2017-Feb-24 20:50 093 0 gusting 2 17.8
2017-Feb-24 20:45 100 0 gusting 2 17.8
2017-Feb-24 20:40 068 0 gusting 2 17.8
2017-Feb-24 20:35 082 17.8
2017-Feb-24 20:30 081 17.8
2017-Feb-24 20:25 248 18.3
2017-Feb-24 20:20 248 1 gusting 2 18.3
2017-Feb-24 20:15 248 1 gusting 2 18.3
2017-Feb-24 20:10 269 0 gusting 2 18.3
2017-Feb-24 20:05 271 1 gusting 2 18.3
2017-Feb-24 20:00 290 1 gusting 4 18.3
2017-Feb-24 19:55 286 1 gusting 2 18.3
2017-Feb-24 19:50 287 1 gusting 4 18.3
2017-Feb-24 19:45 275 2 gusting 5 18.3
2017-Feb-24 19:40 279 3 gusting 5 18.3
2017-Feb-24 19:35 285 3 gusting 5 18.3
2017-Feb-24 19:30 303 3 gusting 6 18.3
2017-Feb-24 19:25 266 3 gusting 6 18.3
2017-Feb-24 19:15 283 2 gusting 5 18.3
2017-Feb-24 19:10 273 2 gusting 5 18.3
2017-Feb-24 19:05 289 3 gusting 6 18.9
2017-Feb-24 19:00 284 2 gusting 5 18.9